Change the Weather History Date:

Friday, January 18, 2013

  Actual Average (KOGB) Record (KOGB)
Temperature  
Mean Temperature 44 °F 46 °F  
Max Temperature 55 °F 56 °F 75 °F (1974)
Min Temperature 32 °F 35 °F 10 °F (1977)
Degree Days  
Heating Degree Days 22 19  
Month to date heating degree days 354  
Since 1 July heating degree days 1258  
Cooling Degree Days 0 0  
Month to date cooling degree days 0  
Year to date cooling degree days 0  
Moisture  
Dew Point 30 °F    
Average Humidity 65    
Maximum Humidity 100    
Minimum Humidity 25    
Precipitation  
Precipitation 0.00 in 0.12 in 1.07 in (1960)
Month to date precipitation 2.15  
Year to date precipitation 2.15  
Sea Level Pressure  
Sea Level Pressure 30.41 in    
Wind  
Wind Speed 7 mph (NNE)    
Max Wind Speed 17 mph    
Max Gust Speed 23 mph    
Visibility 10 miles    
Events      
T = Trace of Precipitation, MM = Missing Value Source: NWS Daily Summary

Daily Weather History Graph

Daily Weather History Graph

Search for Another Location

Airport or City:

Trip Planner

Search our weather history database for the weather conditions in past years. The results will help you decide how hot, cold, wet, or windy it might be!

Date:

Astronomy

Jan. 18, 2013 Rise Set
Actual Time 7:28 AM EST 5:44 PM EST
Civil Twilight 7:01 AM EST 6:10 PM EST
Nautical Twilight 6:31 AM EST 6:41 PM EST
Astronomical Twilight 6:01 AM EST 7:10 PM EST
Moon 11:31 AM EST (1/18) 12:09 AM EST (1/18)
Length of Visible Light 11h 09m
Length of Day
10h 15m
Waxing Crescent, 47% of the Moon is Illuminated
Jan 18
Waxing Crescent
Jan 18
First Quarter
Jan 26
Full
Feb 3
Last Quarter
Feb 10
New

Hourly Weather History & Observations

Time (EST) Temp. Windchill Dew Point Humidity Pressure Visibility Wind Dir Wind Speed Gust Speed Precip Events Conditions
12:15 AM 44.6 °F 40.2 °F 39.2 °F 81% 30.16 in 10.0 mi NNW 8.1 mph - N/A   Mostly Cloudy
12:35 AM 44.6 °F 38.1 °F 39.2 °F 81% 30.17 in 10.0 mi North 13.8 mph 19.6 mph N/A   Overcast
12:55 AM 44.6 °F 37.2 °F 37.4 °F 76% 30.18 in 10.0 mi North 17.3 mph 23.0 mph N/A   Mostly Cloudy
1:15 AM 44.6 °F 38.8 °F 37.4 °F 76% 30.21 in 10.0 mi North 11.5 mph 18.4 mph N/A   Scattered Clouds
1:35 AM 42.8 °F 36.6 °F 37.4 °F 81% 30.22 in 10.0 mi North 11.5 mph 17.3 mph N/A   Scattered Clouds
2:15 AM 42.8 °F 36.6 °F 37.4 °F 81% 30.25 in 10.0 mi North 11.5 mph - N/A   Partly Cloudy
2:35 AM 42.8 °F 37.5 °F 37.4 °F 81% 30.26 in 10.0 mi North 9.2 mph 16.1 mph N/A   Partly Cloudy
3:15 AM 39.2 °F 33.6 °F 37.4 °F 93% 30.28 in 10.0 mi North 8.1 mph - N/A   Clear
3:35 AM 39.2 °F 33.6 °F 35.6 °F 87% 30.28 in 10.0 mi North 8.1 mph - N/A   Clear
3:55 AM 39.2 °F 34.2 °F 35.6 °F 87% 30.29 in 10.0 mi North 6.9 mph - N/A   Clear
4:15 AM 39.2 °F 33.6 °F 35.6 °F 87% 30.30 in 10.0 mi North 8.1 mph - N/A   Clear
4:35 AM 39.2 °F 33.6 °F 35.6 °F 87% 30.31 in 10.0 mi North 8.1 mph - N/A   Clear
4:55 AM 39.2 °F 35.9 °F 35.6 °F 87% 30.31 in 10.0 mi North 4.6 mph - N/A   Clear
5:15 AM 37.4 °F 34.9 °F 35.6 °F 93% 30.32 in 10.0 mi North 3.5 mph - N/A   Clear
5:35 AM 35.6 °F 32.8 °F 35.6 °F 100% 30.33 in 10.0 mi North 3.5 mph - N/A   Clear
6:15 AM 35.6 °F - 35.6 °F 100% 30.35 in 10.0 mi Calm Calm - N/A   Clear
6:35 AM 35.6 °F - 35.6 °F 100% 30.36 in 10.0 mi Calm Calm - N/A   Clear
6:55 AM 33.8 °F - 33.8 °F 100% 30.37 in 10.0 mi Calm Calm - N/A   Clear
7:15 AM 33.8 °F - 32.0 °F 93% 30.38 in 10.0 mi Calm Calm - N/A   Clear
7:35 AM 33.8 °F - 33.8 °F 100% 30.39 in 10.0 mi Calm Calm - N/A   Clear
7:55 AM 33.8 °F - 32.0 °F 93% 30.40 in 10.0 mi Calm Calm - N/A   Clear
8:15 AM 33.8 °F - 33.8 °F 100% 30.41 in 10.0 mi Calm Calm - N/A   Clear
8:35 AM 35.6 °F - 35.6 °F 100% 30.42 in 9.0 mi Calm Calm - N/A   Clear
9:15 AM 39.2 °F - 37.4 °F 93% 30.45 in 10.0 mi Calm Calm - N/A   Clear
9:35 AM 41.0 °F 36.4 °F 35.6 °F 81% 30.47 in 10.0 mi NNE 6.9 mph - N/A   Clear
9:55 AM 42.8 °F 38.6 °F 33.8 °F 70% 30.48 in 10.0 mi NNE 6.9 mph - N/A   Clear
10:15 AM 44.6 °F 39.2 °F 33.8 °F 66% 30.49 in 10.0 mi NNE 10.4 mph - N/A   Clear
10:35 AM 44.6 °F 40.2 °F 32.0 °F 61% 30.50 in 10.0 mi NNE 8.1 mph - N/A   Clear
10:55 AM 46.4 °F 42.4 °F 32.0 °F 57% 30.50 in 10.0 mi North 8.1 mph - N/A   Clear
11:15 AM 48.2 °F - 30.2 °F 50% 30.50 in 10.0 mi North 12.7 mph 17.3 mph N/A   Clear
11:35 AM 48.2 °F - 28.4 °F 46% 30.49 in 10.0 mi NE 12.7 mph 17.3 mph N/A   Clear
11:55 AM 50.0 °F - 28.4 °F 43% 30.49 in 10.0 mi NE 11.5 mph - N/A   Clear
12:15 PM 51.8 °F - 26.6 °F 38% 30.48 in 10.0 mi NE 15.0 mph 18.4 mph N/A   Clear
12:35 PM 51.8 °F - 23.0 °F 33% 30.47 in 10.0 mi NE 12.7 mph 19.6 mph N/A   Clear
12:55 PM 53.6 °F - 23.0 °F 30% 30.46 in 10.0 mi North 15.0 mph 19.6 mph N/A   Clear
1:15 PM 53.6 °F - 21.2 °F 28% 30.45 in 10.0 mi NNE 16.1 mph 20.7 mph N/A   Clear
1:35 PM 53.6 °F - 21.2 °F 28% 30.45 in 10.0 mi NNE 12.7 mph 18.4 mph N/A   Clear
2:15 PM 55.4 °F - 21.2 °F 26% 30.44 in 10.0 mi NNE 17.3 mph 20.7 mph N/A   Clear
2:35 PM 55.4 °F - 19.4 °F 25% 30.44 in 10.0 mi ENE 13.8 mph 17.3 mph N/A   Clear
2:55 PM 55.4 °F - 21.2 °F 26% 30.44 in 10.0 mi NNE 13.8 mph 20.7 mph N/A   Clear
3:15 PM 55.4 °F - 19.4 °F 25% 30.45 in 10.0 mi NE 10.4 mph 16.1 mph N/A   Clear
3:35 PM 55.4 °F - 21.2 °F 26% 30.45 in 10.0 mi NNE 9.2 mph 16.1 mph N/A   Clear
3:55 PM 55.4 °F - 19.4 °F 25% 30.45 in 10.0 mi NNE 8.1 mph - N/A   Clear
4:15 PM 55.4 °F - 21.2 °F 26% 30.45 in 10.0 mi NE 8.1 mph - N/A   Clear
4:35 PM 55.4 °F - 21.2 °F 26% 30.46 in 10.0 mi NE 5.8 mph - N/A   Clear
4:55 PM 53.6 °F - 21.2 °F 28% 30.46 in 10.0 mi NNE 9.2 mph - N/A   Clear
5:15 PM 53.6 °F - 23.0 °F 30% 30.46 in 10.0 mi NNE 6.9 mph - N/A   Clear
5:35 PM 51.8 °F - 23.0 °F 33% 30.47 in 10.0 mi NNE 4.6 mph - N/A   Clear
6:15 PM 46.4 °F - 26.6 °F 46% 30.48 in 10.0 mi Calm Calm - N/A   Clear
6:35 PM 42.8 °F - 30.2 °F 61% 30.48 in 10.0 mi Calm Calm - N/A   Clear
6:55 PM 42.8 °F - 30.2 °F 61% 30.49 in 10.0 mi Calm Calm - N/A   Clear
7:15 PM 41.0 °F - 30.2 °F 65% 30.49 in 10.0 mi Calm Calm - N/A   Clear
7:35 PM 39.2 °F - 30.2 °F 70% 30.49 in 10.0 mi Calm Calm - N/A   Clear
7:55 PM 42.8 °F - 28.4 °F 57% 30.49 in 10.0 mi Calm Calm - N/A   Clear
8:15 PM 42.8 °F - 26.6 °F 53% 30.49 in 10.0 mi Calm Calm - N/A   Clear
8:35 PM 42.8 °F - 28.4 °F 57% 30.49 in 10.0 mi Calm Calm - N/A   Clear
9:15 PM 41.0 °F - 28.4 °F 61% 30.49 in 10.0 mi Calm Calm - N/A   Clear
9:35 PM 41.0 °F - 28.4 °F 61% 30.49 in 10.0 mi Calm Calm - N/A   Clear
9:55 PM 39.2 °F - 26.6 °F 61% 30.50 in 10.0 mi Calm Calm - N/A   Clear
10:15 PM 37.4 °F - 28.4 °F 70% 30.50 in 10.0 mi Calm Calm - N/A   Clear
10:35 PM 35.6 °F - 28.4 °F 75% 30.50 in 10.0 mi Calm Calm - N/A   Clear
11:15 PM 33.8 °F - 30.2 °F 87% 30.51 in 10.0 mi Calm Calm - N/A   Clear
11:35 PM 32.0 °F - 28.4 °F 87% 30.51 in 10.0 mi Calm Calm - N/A   Clear
11:55 PM 32.0 °F - 28.4 °F 87% 30.51 in 10.0 mi Calm Calm - N/A   Clear